Terminal Aerodrome Forecast
Issued by NWS

Current Version | Previous Version | Graphics & Text | Print | Product List | Glossary On
Versions: 1 2 3 4 5 6 7 8 9 10 11 12 13 14 15 16 17 18 19 20 21 22 23 24 25
000
FTUS41 KPBZ 280812 AAB
TAFHLG
TAF AMD
KHLG 280812Z 2808/2906 00000KT 5SM BR SKC
      TEMPO 2809/2813 1/2SM FG VV002
     FM281330 VRB04KT P6SM SCT250=

USA.gov is the U.S. government's official web portal to all federal, state and local government web resources and services.